EW7837 Weather Reports


time (UTC)temp
C
wind
direction
speed
KPH
gust
KPH
rain 1hr
cm
rain 24hr
cm
rain mn
cm
humidity
%
barometer
mb
20260508163032 18 269 0.0 0.0 0.00 0.00 0.00 82 1013.1
20260508161526 18 269 0.0 0.0 0.00 0.00 0.00 83 1013.2
20260508160021 18 269 0.0 0.0 0.00 0.00 0.00 84 1013.2
20260508154517 17 269 0.0 0.0 0.00 0.00 0.00 84 1013.2
20260508153014 17 269 0.0 0.0 0.00 0.00 0.00 85 1013.2
20260508151514 17 269 0.0 0.0 0.00 0.00 0.00 85 1013.2
20260508150013 17 269 0.0 0.0 0.00 0.00 0.00 86 1013.2
20260508144512 17 269 0.0 0.0 0.00 0.00 0.00 86 1013.2
20260508143008 17 269 0.0 0.0 0.00 0.00 0.00 86 1013.1
20260508141503 17 269 0.0 0.0 0.00 0.00 0.00 86 1013.1
20260508140034 17 269 0.0 0.0 0.00 0.00 0.00 86 1012.8
20260508134537 17 269 0.0 0.0 0.00 0.00 0.00 86 1012.7
20260508133120 17 269 0.0 0.0 0.00 0.00 0.00 86 1012.7
20260508131558 17 269 0.0 0.0 0.00 0.00 0.00 86 1012.6
20260508130053 17 269 0.0 0.0 0.00 0.00 0.00 86 1012.6
20260508124552 17 269 0.0 0.0 0.00 0.00 0.00 86 1012.4
20260508123101 17 269 0.0 0.0 0.00 0.00 0.00 86 1012.4
20260508121552 17 269 0.0 0.0 0.00 0.00 0.00 86 1012.4
20260508120021 17 269 0.0 0.0 0.00 0.00 0.00 85 1012.3
20260508114520 17 269 0.0 0.0 0.00 0.00 0.00 85 1012.3
20260508113018 17 269 0.0 0.0 0.00 0.00 0.00 85 1012.3
20260508111517 17 269 0.0 0.0 0.00 0.00 0.00 85 1012.3
20260508110032 17 269 0.0 0.0 0.00 0.00 0.00 85 1012.4
20260508104515 17 269 0.0 0.0 0.00 0.00 0.00 84 1012.6
20260508103102 17 269 0.0 0.0 0.00 0.00 0.00 84 1012.7
20260508101616 17 269 0.0 0.0 0.00 0.00 0.00 84 1012.7
20260508100036 17 269 0.0 0.0 0.00 0.00 0.00 84 1012.6
20260508094535 17 269 0.0 0.0 0.00 0.00 0.00 84 1012.6
20260508093037 17 269 0.0 0.0 0.00 0.00 0.00 84 1012.6
20260508091538 17 269 0.0 0.0 0.00 0.00 0.00 84 1012.6
20260508090031 17 269 0.0 0.0 0.00 0.00 0.00 84 1012.7
20260508084532 17 269 0.0 0.0 0.00 0.00 0.00 84 1012.7
20260508083037 17 269 0.0 0.0 0.00 0.00 0.00 84 1012.8
20260508081531 17 269 0.0 0.0 0.00 0.00 0.00 84 1013.2
20260508080028 17 269 0.0 0.0 0.00 0.00 0.00 84 1013.2
20260508074536 17 269 0.0 0.0 0.00 0.00 0.00 84 1013.2
20260508073030 17 269 0.0 0.0 0.00 0.00 0.00 84 1013.2
20260508071526 17 269 0.0 0.0 0.00 0.00 0.00 84 1013.2
20260508070024 17 269 0.0 0.0 0.00 0.00 0.00 84 1013.5
20260508064523 17 269 0.0 0.0 0.00 0.00 0.00 84 1013.4
20260508063023 17 269 0.0 0.0 0.00 0.00 0.00 84 1013.5
20260508061523 17 269 0.0 0.0 0.00 0.00 0.00 84 1013.5
20260508060022 17 269 0.0 0.0 0.00 0.00 0.00 84 1013.5
20260508054519 17 269 0.0 0.0 0.00 0.00 0.00 84 1013.5
20260508053032 17 269 0.0 0.0 0.00 0.00 0.00 84 1013.5
20260508051517 17 269 0.0 0.0 0.00 0.00 0.00 84 1013.5
20260508050018 17 269 0.0 0.0 0.00 0.00 0.00 84 1013.3
20260508044514 17 269 0.0 0.0 0.00 0.00 0.00 84 1013.2
20260508043015 17 269 0.0 0.0 0.00 0.00 0.00 84 1013.1
20260508041519 17 269 0.0 0.0 0.00 0.00 0.00 84 1012.8
20260508040012 17 269 0.0 0.0 0.00 0.00 0.00 84 1012.7
20260508034544 17 269 0.0 0.0 0.00 0.00 0.00 84 1012.7
20260508033041 17 269 0.0 0.0 0.00 0.00 0.00 84 1012.6
20260508031535 17 269 0.0 0.0 0.00 0.00 0.00 84 1012.2
20260508030033 17 269 0.0 0.0 0.00 0.00 0.00 83 1012.0
20260508024527 18 269 0.0 0.0 0.00 0.00 0.00 82 1011.8
20260508023126 18 269 0.0 0.0 0.00 0.00 0.00 80 1011.7
20260508021524 18 269 0.0 0.0 0.00 0.00 0.00 78 1011.5
20260508020030 19 269 0.0 0.0 0.00 0.00 0.00 77 1011.5
20260508014524 20 269 0.0 0.0 0.00 0.00 0.00 75 1011.4
20260508013123 21 269 0.0 0.0 0.00 0.00 0.00 74 1011.4
20260508011551 21 269 0.0 0.0 0.00 0.00 0.00 73 1011.3
20260508010015 21 269 0.0 0.0 0.00 0.00 0.00 72 1011.3
20260508004516 21 269 0.0 0.0 0.00 0.00 0.00 72 1011.5
20260508003113 21 269 0.0 0.0 0.00 0.00 0.00 72 1011.5
20260508001521 21 269 0.0 0.0 0.00 0.00 0.00 72 1011.1
20260508000019 21 259 0.0 0.0 0.00 0.00 0.00 72 1011.5
20260507234519 21 262 0.0 0.0 0.00 0.00 0.00 71 1011.5
20260507233030 21 246 0.0 0.0 0.00 0.00 0.00 72 1011.4
20260507231517 21 240 0.0 0.0 0.00 0.00 0.00 71 1011.5
20260507230015 21 268 0.0 0.0 0.00 0.00 0.00 71 1011.6
20260507224515 21 279 1.6 0.0 0.00 0.00 0.00 71 1011.6
20260507223014 21 271 0.0 0.0 0.00 0.00 0.00 71 1011.7
20260507221544 22 242 0.0 0.0 0.00 0.00 0.00 70 1011.8
20260507220043 22 259 1.6 0.0 0.00 0.00 0.00 70 1011.9
20260507214537 21 217 0.0 0.0 0.00 0.00 0.00 70 1012.2
20260507213040 22 250 1.6 0.0 0.00 0.00 0.00 71 1012.2
20260507211537 21 252 0.0 0.0 0.00 0.00 0.00 70 1012.3
20260507210045 21 273 0.0 0.0 0.00 0.00 0.00 70 1012.5
20260507204535 21 252 0.0 0.0 0.00 0.00 0.00 70 1012.6
20260507203041 21 265 0.0 0.0 0.00 0.00 0.00 71 1012.5
20260507201534 22 270 1.6 0.0 0.00 0.00 0.00 70 1012.5
20260507200034 22 254 1.6 0.0 0.00 0.00 0.00 70 1012.6
20260507194501 22 266 0.0 0.0 0.00 0.00 0.00 70 1012.6
20260507193001 22 262 0.0 0.0 0.00 0.00 0.00 70 1012.7
20260507191556 21 254 0.0 0.0 0.00 0.00 0.00 72 1012.7
20260507190056 21 209 1.6 0.0 0.00 0.00 0.00 70 1012.8
20260507184552 22 256 0.0 0.0 0.00 0.00 0.00 70 1013.0
20260507183051 22 264 0.0 0.0 0.00 0.00 0.00 71 1013.0
20260507181554 21 254 0.0 0.0 0.00 0.00 0.00 70 1013.1
20260507180047 22 250 0.0 0.0 0.00 0.00 0.00 67 1013.2
20260507174553 22 250 0.0 0.0 0.00 0.00 0.00 70 1013.2
20260507173103 22 250 0.0 0.0 0.00 0.00 0.00 68 1013.2
20260507171546 22 250 0.0 0.0 0.00 0.00 0.00 70 1013.3
20260507170039 22 250 0.0 0.0 0.00 0.00 0.00 70 1013.4
20260507164536 21 250 0.0 0.0 0.00 0.00 0.00 72 1013.6